Вернуться в каталог

STARLINK-3895

АктивенСвязьVLEO
NORAD 52583·PAYLOAD·🇺🇸 United States

Запущен May 13, 2022 с Vandenberg Space Force Base

Loading…

Ближайшие Пролёты (ближайшие 24 часа)

TLE

СвежийSource: CelesTrak SupGP

Эпоха: Sep 15, 2026, 02:06 UTC

1 52583C 22051AZ  26258.08798611  .00047375  00000+0  13558-2 0  2583
2 52583  53.1593 341.9004 0000818  79.6586 146.2363 15.35368003    10

Отслеживайте STARLINK-3895 в реальном времени с AllMySat

Download on the App Store